Sturgis, MI

8:05 AM EST on December 08, 2019 (GMT -0500)
Kirsch Municipal

Weather History for KIRS - October, 2019

Change the Weather History Date:

Tuesday, October 1, 2019

  Actual Average (WUND) Record (WUND)
Temperature  
Mean Temperature 78 °F -  
Max Temperature 87 °F - - (-1)
Min Temperature 68 °F - - (-1)
Cooling Degree Days 12    
Growing Degree Days 28 (Base 50)    
Moisture  
Dew Point 66 °F    
Average Humidity 69    
Maximum Humidity 85    
Minimum Humidity 46    
Precipitation  
Precipitation 0.00 in - - ()
Sea Level Pressure  
Sea Level Pressure 29.97 in    
Wind  
Wind Speed 5 mph ()    
Max Wind Speed 13 mph    
Max Gust Speed 16 mph    
Visibility 10.0 miles    
Events      
Averages and records for this station are not official NWS values.
T = Trace of Precipitation, MM = Missing Value Source: Averaged Metar Reports

Daily Weather History Graph

Daily Weather History Graph

Search for Another Location

Airport or City:

Astronomy

Oct. 01, 2019 Rise Set
Actual Time 7:38 AM EDT 7:23 PM EDT
Civil Twilight 7:10 AM EDT 7:51 PM EDT
Nautical Twilight 6:38 AM EDT 8:23 PM EDT
Astronomical Twilight 6:05 AM EDT 8:56 PM EDT
Moon 10:56 AM EDT (10/1) 9:33 PM EDT (10/1)
Length of Visible Light 12h 40m
Length of Day
11h 45m
Waxing Crescent, 12% of the Moon is Illuminated
Oct 1
Waxing Crescent
Oct 5
First Quarter
Oct 13
Full
Oct 21
Last Quarter
Oct 27
New

Hourly Weather History & Observations

Time (EDT) Temp. Heat Index Dew Point Humidity Pressure Visibility Wind Dir Wind Speed Gust Speed Precip Events Conditions
12:15 AM 72.5 °F - 65.5 °F 79% 29.99 in 10.0 mi SW 5.8 mph - N/A   Clear
12:16 AM 72.5 °F - 65.3 °F 78% 29.99 in 10.0 mi SW 5.8 mph - N/A   Clear
12:35 AM 72.5 °F - 65.3 °F 78% 29.99 in 10.0 mi SW 4.6 mph - N/A   Clear
12:36 AM 72.5 °F - 65.3 °F 78% 29.99 in 10.0 mi SW 4.6 mph - N/A   Clear
12:59 AM 72.1 °F - 65.3 °F 79% 29.99 in 10.0 mi SSW 4.6 mph - N/A   Clear
1:17 AM 71.1 °F - 64.6 °F 80% 29.98 in 10.0 mi SSW 4.6 mph - N/A   Clear
1:35 AM 71.1 °F - 64.6 °F 80% 29.98 in 10.0 mi SSW 5.8 mph - N/A   Clear
1:55 AM 71.2 °F - 64.6 °F 79% 29.99 in 10.0 mi SW 5.8 mph - N/A   Clear
2:15 AM 70.5 °F - 64.6 °F 81% 29.99 in 10.0 mi SW 5.8 mph - N/A   Clear
2:20 AM 70.2 °F - 64.6 °F 82% 29.99 in 10.0 mi SW 5.8 mph - N/A   Clear
2:38 AM 70.3 °F - 64.6 °F 82% 29.99 in 10.0 mi SW 4.6 mph - N/A   Clear
2:56 AM 70.9 °F - 64.6 °F 80% 30.00 in 10.0 mi WSW 3.5 mph - N/A   Clear
3:15 AM 70.0 °F - 64.2 °F 82% 30.00 in 10.0 mi SSW 5.8 mph - N/A   Clear
3:35 AM 68.9 °F - 64.2 °F 85% 29.99 in 10.0 mi SW 4.6 mph - N/A   Clear
3:59 AM 68.9 °F - 64.0 °F 84% 29.99 in 10.0 mi SW 4.6 mph - N/A   Clear
4:17 AM 69.1 °F - 64.0 °F 84% 29.99 in 10.0 mi SW 3.5 mph - N/A   Clear
4:36 AM 70.0 °F - 64.0 °F 81% 29.99 in 10.0 mi SSW 4.6 mph - N/A   Clear
4:55 AM 69.6 °F - 64.0 °F 82% 29.98 in 10.0 mi SW 4.6 mph - N/A   Clear
5:15 AM 69.3 °F - 64.4 °F 84% 29.98 in 10.0 mi SW 5.8 mph - N/A   Clear
5:20 AM 69.8 °F - 64.4 °F 83% 29.99 in 10.0 mi SW 4.6 mph - N/A   Clear
5:38 AM 70.2 °F - 64.8 °F 83% 29.99 in 10.0 mi SW 4.6 mph - N/A   Clear
5:56 AM 70.9 °F - 64.8 °F 81% 29.99 in 10.0 mi SW 4.6 mph - N/A   Clear
6:15 AM 70.7 °F - 64.9 °F 82% 29.99 in 10.0 mi SW 3.5 mph - N/A   Clear
6:35 AM 71.2 °F - 64.6 °F 79% 29.99 in 10.0 mi SW 4.6 mph - N/A   Clear
6:36 AM 71.2 °F - 64.8 °F 80% 29.99 in 10.0 mi SW 4.6 mph - N/A   Clear
7:17 AM 71.1 °F - 64.6 °F 80% 30.00 in 10.0 mi SSW 4.6 mph - N/A   Clear
7:35 AM 70.7 °F - 64.6 °F 81% 30.00 in 10.0 mi SSW 5.8 mph - N/A   Clear
7:55 AM 70.2 °F - 64.6 °F 82% 30.00 in 10.0 mi SSW 4.6 mph - N/A   Clear
7:56 AM 70.2 °F - 64.4 °F 82% 30.00 in 10.0 mi SSW 4.6 mph - N/A   Clear
8:15 AM 70.3 °F - 64.9 °F 83% 30.00 in 10.0 mi SSW 4.6 mph - N/A   Clear
8:20 AM 70.7 °F - 65.3 °F 83% 30.00 in 10.0 mi SSW 4.6 mph - N/A   Clear
8:37 AM 72.1 °F - 65.7 °F 80% 30.00 in 10.0 mi SSW 4.6 mph - N/A   Clear
8:56 AM 73.6 °F - 66.0 °F 77% 30.00 in 10.0 mi SSW 6.9 mph - N/A   Clear
9:15 AM 75.0 °F - 66.2 °F 74% 30.00 in 10.0 mi SW 6.9 mph - N/A   Clear
9:16 AM 75.0 °F - 66.2 °F 74% 30.00 in 10.0 mi SW 6.9 mph - N/A   Clear
9:35 AM 76.5 °F - 66.6 °F 71% 30.00 in 10.0 mi SW 8.1 mph - N/A   Clear
9:59 AM 77.9 °F - 66.7 °F 68% 30.00 in 10.0 mi WSW 9.2 mph - N/A   Clear
10:17 AM 79.2 °F - 66.7 °F 66% 29.99 in 10.0 mi SW 12.7 mph - N/A   Clear
10:35 AM 80.2 °F 82.5 °F 66.7 °F 63% 29.99 in 10.0 mi WSW 9.2 mph 16.1 mph N/A   Clear
10:36 AM 80.2 °F 82.5 °F 66.7 °F 63% 29.99 in 10.0 mi WSW 10.4 mph 16.1 mph N/A   Clear
10:55 AM 81.7 °F 84.2 °F 67.1 °F 61% 29.99 in 10.0 mi WSW 8.1 mph - N/A   Clear
11:15 AM 82.8 °F 85.3 °F 67.1 °F 59% 29.99 in 10.0 mi WSW 6.9 mph - N/A   Clear
11:38 AM 83.3 °F 85.9 °F 66.9 °F 58% 29.99 in 10.0 mi WSW 9.2 mph - N/A   Clear
11:56 AM 82.8 °F 85.1 °F 66.6 °F 58% 29.99 in 10.0 mi SW 8.1 mph - N/A   Clear
12:15 PM 83.5 °F 86.4 °F 68.0 °F 59% 29.99 in 10.0 mi WSW 5.8 mph - N/A   Clear
12:35 PM 84.9 °F 87.9 °F 67.6 °F 56% 29.99 in 10.0 mi WSW 12.7 mph - N/A   Clear
12:59 PM 85.3 °F 88.5 °F 68.0 °F 56% 30.00 in 10.0 mi WSW 11.5 mph - N/A   Clear
1:17 PM 85.6 °F 88.8 °F 67.6 °F 55% 29.99 in 10.0 mi WSW 11.5 mph - N/A   Clear
1:35 PM 85.5 °F 88.2 °F 67.3 °F 54% 29.99 in 10.0 mi West 9.2 mph - N/A   Clear
1:55 PM 85.6 °F 88.2 °F 66.9 °F 53% 29.99 in 10.0 mi WSW 9.2 mph - N/A   Clear
2:15 PM 85.6 °F 87.9 °F 66.2 °F 52% 29.98 in 10.0 mi WSW 9.2 mph - N/A   Clear
2:20 PM 85.8 °F 88.2 °F 66.2 °F 52% 29.98 in 10.0 mi West 8.1 mph - N/A   Clear
2:38 PM 85.5 °F 87.4 °F 65.5 °F 51% 29.98 in 10.0 mi WSW 9.2 mph - N/A   Clear
2:56 PM 86.9 °F 89.3 °F 66.2 °F 50% 29.98 in 10.0 mi WSW 8.1 mph - N/A   Clear
3:15 PM 86.2 °F 88.4 °F 66.0 °F 51% 29.97 in 10.0 mi WSW 9.2 mph - N/A   Clear
3:36 PM 86.2 °F 88.4 °F 66.4 °F 51% 29.97 in 10.0 mi West 4.6 mph - N/A   Scattered Clouds
3:55 PM 86.5 °F 88.7 °F 65.7 °F 50% 29.96 in 10.0 mi WSW 6.9 mph - N/A   Clear
4:15 PM 86.9 °F 88.6 °F 65.3 °F 48% 29.96 in 10.0 mi WSW 11.5 mph - N/A   Clear
4:39 PM 86.0 °F 87.9 °F 65.5 °F 50% 29.96 in 10.0 mi West 6.9 mph - N/A   Scattered Clouds
4:57 PM 85.5 °F 87.4 °F 65.7 °F 51% 29.97 in 10.0 mi West 6.9 mph - N/A   Mostly Cloudy
5:15 PM 86.4 °F 88.4 °F 65.7 °F 50% 29.97 in 10.0 mi West 4.6 mph - N/A   Mostly Cloudy
5:35 PM 87.6 °F 89.1 °F 64.6 °F 46% 29.96 in 10.0 mi West 6.9 mph - N/A   Scattered Clouds
5:36 PM 87.4 °F 88.8 °F 64.6 °F 46% 29.96 in 10.0 mi West 6.9 mph - N/A   Scattered Clouds
5:55 PM 85.6 °F 87.4 °F 65.3 °F 50% 29.95 in 10.0 mi Calm Calm - N/A   Mostly Cloudy
5:59 PM 85.5 °F 87.4 °F 65.5 °F 51% 29.95 in 10.0 mi West 3.5 mph - N/A   Mostly Cloudy
6:18 PM 83.7 °F 86.2 °F 67.1 °F 57% 29.94 in 10.0 mi SW 4.6 mph - N/A   Scattered Clouds
6:36 PM 83.7 °F 86.2 °F 66.9 °F 57% 29.93 in 10.0 mi SW 4.6 mph - N/A   Clear
6:55 PM 82.4 °F 85.4 °F 68.0 °F 62% 29.94 in 10.0 mi Calm Calm - N/A   Clear
7:15 PM 80.2 °F 82.6 °F 67.1 °F 64% 29.93 in 10.0 mi SSW 4.6 mph - N/A   Clear
7:39 PM 78.8 °F - 66.7 °F 66% 29.92 in 10.0 mi South 4.6 mph - N/A   Clear
7:57 PM 79.0 °F - 66.7 °F 66% 29.92 in 10.0 mi South 4.6 mph - N/A   Clear
8:15 PM 77.4 °F - 66.7 °F 70% 29.92 in 10.0 mi South 4.6 mph - N/A   Clear
8:35 PM 78.1 °F - 66.6 °F 68% 29.91 in 10.0 mi South 4.6 mph - N/A   Clear
8:55 PM 77.5 °F - 66.6 °F 69% 29.90 in 10.0 mi South 4.6 mph - N/A   Clear
9:18 PM 77.4 °F - 66.6 °F 69% 29.89 in 10.0 mi South 5.8 mph - N/A   Clear
9:36 PM 77.0 °F - 66.6 °F 70% 29.89 in 10.0 mi South 5.8 mph - N/A   Clear
9:55 PM 77.0 °F - 66.6 °F 70% 29.89 in 10.0 mi SSW 4.6 mph - N/A   Clear
9:56 PM 77.0 °F - 66.6 °F 70% 29.89 in 10.0 mi SSW 4.6 mph - N/A   Clear
10:15 PM 76.6 °F - 66.2 °F 70% 29.89 in 10.0 mi SSW 6.9 mph - N/A   Clear
10:39 PM 75.9 °F - 66.2 °F 72% 29.89 in 10.0 mi SSW 6.9 mph - N/A   Clear
10:57 PM 75.4 °F - 66.2 °F 73% 29.89 in 10.0 mi SSW 5.8 mph - N/A   Clear
11:15 PM 75.2 °F - 66.2 °F 73% 29.90 in 10.0 mi SW 4.6 mph - N/A   Clear
11:16 PM 75.0 °F - 66.2 °F 74% 29.90 in 10.0 mi SW 4.6 mph - N/A   Clear
11:35 PM 74.7 °F - 66.2 °F 75% 29.90 in 10.0 mi SW 4.6 mph - N/A   Clear
11:36 PM 74.7 °F - 66.2 °F 75% 29.90 in 10.0 mi SW 4.6 mph - N/A   Clear
11:55 PM 75.0 °F - 66.2 °F 74% 29.89 in 10.0 mi SW 4.6 mph - N/A   Clear